Location: Biharia
(46.4333°N, 22.8000°E)
Time: 11:39:50
(UTC+00:00)

USA 215 - Pass Details

Date: 16 October 2021
Orbit: 1099 x 1109 km, 123.0° (Epoch: 20 November)

Event Time Altitude Azimuth Distance (km) Brightness Sun altitude
Exits shadow 17:54:55 24° 45° (NE) 2,116 4.4 -23.9°
Maximum altitude 17:57:54 35° 1° (N) 1,700 4.3 -24.4°
Drops below altitude 10° 18:03:41 10° 299° (WNW) 2,967 6.5 -25.3°
Sets 18:06:23 0° 291° (WNW) 3,926 7.5 -25.8°
